Lid_Strength_Index
-1 -1 1 3 7 8 11 9 8 9 8 5 5 6 7 6 7 9 1 0 -0 -0 -1 -1 -1 -1 -1 -1 -1 -1 -1 -1 -1 -1 -1 -1 -1 -1 -1 -1 -1 -1 -1 -1 -1 -1 -1 -1 -1
-1 1 3 5 8 10 10 9 9 7 6 5 5 5 6 7 3 3 2 0 -0 -0 -1 -1 -1 -1 -1 -1 -1 -1 -1 -1 -1 -1 -1 -1 -1 -1 -1 -1 -1 -1 -1 -1 -1 -1 -1 -1 -1
2 2 4 6 8 10 9 7 7 6 5 5 6 4 5 6 3 3 1 -0 -0 -0 -1 -1 -1 -1 -1 -1 -1 -1 -1 -1 -1 -1 -1 -1 -1 -1 -1 -1 -1 -1 -1 -1 -1 -1 -1 -1 -1
3 2 3 8 9 8 9 8 7 8 8 7 4 6 4 2 3 2 0 -0 -0 -0 -1 -1 -1 -1 -1 -1 -1 -1 -1 -1 -1 -1 -1 -1 -1 -1 -2 -1 -1 -1 -1 -1 -1 -1 -1 -1 -1
3 3 7 9 8 8 8 8 7 8 9 9 6 6 6 3 1 1 1 0 0 -0 -1 -1 -1 -1 -1 -1 -1 -1 -1 -1 -1 -1 -1 -1 -1 -1 -1 -1 -1 -1 -1 -1 -1 -1 -2 -2 -3
6 4 8 10 8 7 7 6 7 8 9 9 5 6 5 2 2 1 0 0 -0 -0 -1 -1 -1 -1 -1 -1 -1 -1 -1 -1 -1 -1 -1 -1 -1 -1 -1 -1 -1 -1 -1 -1 -1 -1 -2 -3 -3
7 7 10 9 9 8 8 8 8 8 9 9 4 7 5 3 2 1 1 0 -0 -0 -0 -1 -1 -1 -1 -1 -1 -1 -1 -1 -1 -1 -1 -1 -1 -1 -1 -2 -1 -1 -1 -1 -1 -2 -3 -2 -3
5 6 9 9 9 9 7 8 8 8 8 7 3 7 6 3 1 1 0 0 0 -0 -0 -0 -1 -1 -1 -1 -1 -1 -1 -1 -1 -1 -1 -2 -2 -1 -1 -2 -1 -1 -1 -1 -1 -2 -2 -3 -2
6 8 10 10 9 8 6 8 7 7 8 7 5 4 3 2 1 2 2 2 1 1 0 -0 -0 -1 -1 -1 -1 -1 -1 -1 -1 -1 -1 -1 -1 -2 -2 -2 -1 -1 -1 -1 -1 -1 -2 -3 -1
6 9 9 8 7 7 6 6 7 8 7 7 7 3 3 2 2 3 3 3 2 2 1 -0 -0 -1 -1 -1 -1 -1 -1 -1 -2 -1 -2 -1 -2 -2 -2 -2 -1 -1 -1 -1 -1 -1 -1 -2 -2
7 8 7 7 6 6 6 6 5 8 8 7 8 7 4 3 3 3 3 2 2 1 1 0 -0 -1 -1 -1 -1 -1 -1 -1 -1 -2 -2 -2 -1 -1 -1 -1 -1 -2 -1 -2 -2 -2 -2 -1 -2
8 7 6 6 5 6 7 6 6 7 7 6 7 7 3 4 3 3 3 2 2 2 1 0 -0 -0 -1 -1 -1 -1 -1 -1 -1 -1 -2 -1 -1 -1 -1 -1 -1 -1 -2 -2 -2 -2 -2 -2 -1
9 9 8 6 7 7 6 6 6 6 6 7 6 6 3 3 3 2 2 2 1 2 1 1 -0 -0 -0 -0 -1 -1 -1 -1 -1 -1 -2 -1 -1 -1 -1 -1 -1 -1 -1 -2 -2 -2 -1 -1 -1
8 8 8 8 7 7 7 6 7 5 4 6 7 5 3 3 3 3 2 2 2 1 1 0 0 -0 -0 -0 -1 -0 -1 -1 -1 -1 -1 -2 -1 -1 -1 -1 -1 -1 -1 -2 -2 -1 -1 -1 -1
9 9 8 8 8 7 7 8 7 5 5 5 6 6 3 3 3 3 2 2 2 1 1 1 0 -0 -0 -0 -0 -1 -1 -1 -1 -1 -1 -2 -2 -1 -1 -1 -0 -1 -1 0 -0 -1 -2 -1 -1
9 10 11 9 9 8 8 9 6 6 5 5 5 5 6 6 3 2 2 2 1 1 1 1 0 0 -0 -0 -0 -0 -1 -1 -1 -1 -1 -1 -1 -2 -1 -0 -0 -1 2 1 1 -0 -0 -0 -0
10 12 12 10 9 9 9 10 6 5 6 5 4 4 5 5 5 4 5 1 1 1 1 1 0 0 0 -0 -0 -0 -1 -0 -1 -1 -1 -1 -1 -1 -1 -1 -1 1 2 1 1 1 0 0 0
12 13 12 11 9 9 10 9 7 6 6 5 5 5 4 4 4 2 4 5 1 1 1 1 1 0 0 -0 -0 0 -0 -0 -1 -1 -1 -1 -1 -1 -1 -1 0 2 2 2 1 0 0 0 0
10 11 11 10 9 10 10 9 7 6 6 6 6 5 4 4 3 2 2 2 2 1 1 1 1 1 1 1 1 1 2 1 0 0 -0 -1 -1 -1 -1 -0 2 2 2 1 -1 0 0 1 -0
11 12 12 10 10 9 9 9 7 7 7 6 5 5 5 4 4 3 2 2 1 1 1 1 1 1 1 1 1 1 1 1 1 -0 0 -0 -1 -1 -1 -1 2 3 2 1 -0 0 1 1 0
11 11 11 11 11 10 10 10 8 8 6 5 5 5 4 5 4 4 3 3 2 2 1 1 1 1 1 0 1 0 1 2 2 2 1 0 -1 -1 -1 -0 1 2 2 2 0 -0 0 2 1
12 10 10 10 11 12 10 12 9 8 8 7 6 6 5 5 4 3 3 3 2 2 1 1 1 1 0 -0 1 1 2 3 2 2 1 1 -0 -0 -0 0 1 2 2 1 0 0 1 1 2
10 9 9 10 10 11 11 11 9 8 8 8 7 6 5 5 4 4 3 3 2 2 1 1 1 1 0 0 0 1 1 2 0 0 0 0 -0 -0 0 1 2 2 3 2 -0 -0 0 1 1
9 9 10 11 10 13 10 11 11 10 11 9 7 6 5 5 4 3 3 2 3 2 2 1 1 1 0 0 1 1 1 1 1 1 1 1 0 0 1 2 2 1 2 2 0 -1 -0 -0 0
8 9 13 14 14 14 11 11 12 10 8 8 8 6 5 4 4 4 4 3 3 3 3 2 2 2 1 1 1 1 1 1 1 1 1 1 1 1 1 1 2 1 1 2 -1 -1 -0 -0 0
11 10 12 16 15 13 11 14 13 8 7 7 6 6 5 5 4 4 3 3 3 2 2 3 3 3 1 1 1 0 0 1 1 1 1 1 0 0 0 1 1 1 1 0 -1 -0 -0 -1 0
12 12 11 13 13 13 12 13 10 8 8 8 8 7 6 5 4 4 3 3 2 2 2 2 3 4 4 3 2 2 1 1 1 0 1 2 2 1 1 2 2 2 1 -0 -1 -0 -0 -0 -0
12 11 13 12 17 17 15 15 13 10 9 8 8 7 6 4 4 4 3 3 2 2 1 1 1 2 1 2 3 2 3 3 1 1 2 1 2 2 2 2 2 1 1 -0 -0 -0 -0 -0 0
11 12 13 12 13 15 16 14 10 9 8 8 7 6 6 5 5 4 3 3 2 1 1 1 1 1 1 1 1 1 1 1 1 1 0 2 1 1 1 1 1 2 2 1 0 0 0 1 0
11 11 11 14 14 13 13 13 8 9 8 8 8 7 7 6 5 4 3 3 3 2 2 2 1 1 1 1 1 1 1 1 1 1 1 0 0 0 0 0 1 2 1 1 1 1 0 1 2